Tracking 17155 objects as of 28-July-2015
HD Live streaming from Space Station

UNAMSAT

Track UNAMSAT now!
10-day predictions
UNAMSAT is classified as:


NORAD ID: 24305
Int'l Code: 1996-052B
Perigee: 970.9 km
Apogee: 1,015.7 km
Inclination: 82.9 °
Period: 104.8 minutes
Semi major axis: 7364 km
RCS: 0.174 m2 (medium)
Launch date: September 5, 1996
Source: Mexico (MEX)
Your satellite tracking list
Your tracking list is empty





NASA's NSSDC Master Catalog

Two Line Element Set (TLE):
1 24305U 96052B   15208.43463810  .00000029  00000-0  14094-4 0  9994
2 24305 082.9386 143.6282 0030405 162.6888 291.1833 13.73747691946991

Source of the keplerian elements: AFSPC

N2YO: 262